| time (UTC) | temp F | wind direction | speed knots | gust knots | rain 1hr in | rain 24hr in | rain mn in | humidity % | barometer mb |
| 20260905005955 | 92 | 131 | 1.7 | 4.3 | 0.00 | 0.00 | 0.00 | 43 | 1010.3 |
| 20260905005449 | 93 | 121 | 1.7 | 4.3 | 0.00 | 0.00 | 0.00 | 42 | 1010.1 |
| 20260905004931 | 93 | 99 | 2.6 | 4.3 | 0.00 | 0.00 | 0.00 | 42 | 1010.1 |
| 20260905004431 | 93 | 132 | 1.7 | 5.2 | 0.00 | 0.00 | 0.00 | 41 | 1010.1 |
| 20260905003905 | 94 | 150 | 1.7 | 6.1 | 0.00 | 0.00 | 0.00 | 41 | 1010.1 |
| 20260905003353 | 94 | 139 | 2.6 | 7.8 | 0.00 | 0.00 | 0.00 | 40 | 1010.1 |
| 20260905003109 | 94 | 120 | 2.6 | 7.8 | 0.00 | 0.00 | 0.00 | 40 | 1010.1 |
| 20260905002353 | 95 | 110 | 1.7 | 6.1 | 0.00 | 0.00 | 0.00 | 40 | 1010.0 |
| 20260905001825 | 95 | 155 | 1.7 | 6.1 | 0.00 | 0.00 | 0.00 | 40 | 1009.9 |
| 20260905001312 | 95 | 158 | 1.7 | 6.1 | 0.00 | 0.00 | 0.00 | 39 | 1009.9 |
| 20260905000748 | 96 | 108 | 1.7 | 6.1 | 0.00 | 0.00 | 0.00 | 38 | 1009.9 |
| 20260905000248 | 96 | 139 | 2.6 | 6.1 | 0.00 | 0.00 | 0.00 | 38 | 1009.9 |
| 20260904235748 | 96 | 122 | 2.6 | 6.1 | 0.00 | 0.00 | 0.00 | 38 | 1009.8 |
| 20260904235504 | 96 | 111 | 2.6 | 7.0 | 0.00 | 0.00 | 0.00 | 38 | 1009.9 |
| 20260904234746 | 96 | 176 | 3.5 | 7.0 | 0.00 | 0.00 | 0.00 | 38 | 1009.9 |
| 20260904234507 | 96 | 115 | 2.6 | 7.0 | 0.00 | 0.00 | 0.00 | 38 | 1009.8 |
| 20260904233742 | 96 | 125 | 2.6 | 7.0 | 0.00 | 0.00 | 0.00 | 38 | 1009.8 |
| 20260904233245 | 97 | 159 | 2.6 | 7.0 | 0.00 | 0.00 | 0.00 | 38 | 1009.8 |
| 20260904232720 | 97 | 127 | 2.6 | 7.0 | 0.00 | 0.00 | 0.00 | 38 | 1009.8 |
| 20260904232219 | 97 | 186 | 2.6 | 7.0 | 0.00 | 0.00 | 0.00 | 38 | 1009.7 |
| 20260904231654 | 97 | 143 | 2.6 | 7.0 | 0.00 | 0.00 | 0.00 | 38 | 1009.8 |
| 20260904231126 | 97 | 139 | 3.5 | 8.7 | 0.00 | 0.00 | 0.00 | 38 | 1009.8 |
| 20260904230623 | 97 | 152 | 4.3 | 9.6 | 0.00 | 0.00 | 0.00 | 37 | 1009.8 |
| 20260904230053 | 97 | 103 | 3.5 | 7.0 | 0.00 | 0.00 | 0.00 | 37 | 1009.8 |
| 20260904225534 | 97 | 113 | 3.5 | 7.8 | 0.00 | 0.00 | 0.00 | 38 | 1009.8 |
| 20260904225034 | 98 | 113 | 3.5 | 8.7 | 0.00 | 0.00 | 0.00 | 37 | 1009.9 |
| 20260904224532 | 98 | 229 | 3.5 | 8.7 | 0.00 | 0.00 | 0.00 | 37 | 1009.9 |
| 20260904224030 | 97 | 129 | 2.6 | 7.8 | 0.00 | 0.00 | 0.00 | 38 | 1009.9 |
| 20260904223502 | 97 | 153 | 3.5 | 7.0 | 0.00 | 0.00 | 0.00 | 38 | 1010.0 |
| 20260904223007 | 98 | 187 | 3.5 | 8.7 | 0.00 | 0.00 | 0.00 | 37 | 1010.0 |
| 20260904222433 | 98 | 129 | 3.5 | 8.7 | 0.00 | 0.00 | 0.00 | 38 | 1010.0 |
| 20260904221915 | 99 | 144 | 3.5 | 7.0 | 0.00 | 0.00 | 0.00 | 38 | 1010.0 |
| 20260904221414 | 99 | 148 | 2.6 | 7.8 | 0.00 | 0.00 | 0.00 | 39 | 1009.9 |
| 20260904220847 | 99 | 214 | 2.6 | 6.1 | 0.00 | 0.00 | 0.00 | 38 | 1009.9 |
| 20260904220345 | 98 | 117 | 3.5 | 7.8 | 0.00 | 0.00 | 0.00 | 38 | 1009.9 |
| 20260904215842 | 98 | 236 | 3.5 | 7.8 | 0.00 | 0.00 | 0.00 | 38 | 1010.0 |
| 20260904215314 | 98 | 179 | 3.5 | 7.8 | 0.00 | 0.00 | 0.00 | 39 | 1010.1 |
| 20260904214748 | 98 | 111 | 4.3 | 10.4 | 0.00 | 0.00 | 0.00 | 39 | 1010.1 |
| 20260904214222 | 98 | 258 | 4.3 | 10.4 | 0.00 | 0.00 | 0.00 | 38 | 1010.2 |
| 20260904213654 | 98 | 147 | 4.3 | 9.6 | 0.00 | 0.00 | 0.00 | 40 | 1010.2 |
| 20260904213149 | 98 | 106 | 4.3 | 9.6 | 0.00 | 0.00 | 0.00 | 39 | 1010.2 |
| 20260904212645 | 98 | 129 | 3.5 | 9.6 | 0.00 | 0.00 | 0.00 | 39 | 1010.3 |
| 20260904212142 | 98 | 142 | 3.5 | 7.8 | 0.00 | 0.00 | 0.00 | 39 | 1010.4 |
| 20260904211639 | 98 | 141 | 4.3 | 7.8 | 0.00 | 0.00 | 0.00 | 38 | 1010.4 |
| 20260904211133 | 98 | 201 | 4.3 | 9.6 | 0.00 | 0.00 | 0.00 | 38 | 1010.5 |
| 20260904210631 | 98 | 70 | 4.3 | 9.6 | 0.00 | 0.00 | 0.00 | 38 | 1010.5 |
| 20260904210110 | 98 | 194 | 3.5 | 9.6 | 0.00 | 0.00 | 0.00 | 37 | 1010.6 |
| 20260904205816 | 98 | 136 | 3.5 | 9.6 | 0.00 | 0.00 | 0.00 | 38 | 1010.6 |
| 20260904205054 | 99 | 191 | 3.5 | 8.7 | 0.00 | 0.00 | 0.00 | 37 | 1010.7 |
| 20260904204549 | 99 | 130 | 3.5 | 8.7 | 0.00 | 0.00 | 0.00 | 37 | 1010.7 |
| 20260904204048 | 98 | 189 | 3.5 | 8.7 | 0.00 | 0.00 | 0.00 | 37 | 1010.7 |
| 20260904203518 | 99 | 120 | 3.5 | 8.7 | 0.00 | 0.00 | 0.00 | 36 | 1010.8 |
| 20260904203018 | 99 | 141 | 3.5 | 7.8 | 0.00 | 0.00 | 0.00 | 38 | 1010.9 |
| 20260904202454 | 99 | 134 | 3.5 | 7.8 | 0.00 | 0.00 | 0.00 | 38 | 1011.0 |
| 20260904201924 | 99 | 212 | 2.6 | 11.3 | 0.00 | 0.00 | 0.00 | 37 | 1011.0 |
| 20260904201620 | 98 | 86 | 3.5 | 11.3 | 0.00 | 0.00 | 0.00 | 38 | 1011.1 |
| 20260904200833 | 98 | 145 | 4.3 | 9.6 | 0.00 | 0.00 | 0.00 | 39 | 1011.2 |
| 20260904200306 | 98 | 108 | 4.3 | 13.9 | 0.00 | 0.00 | 0.00 | 38 | 1011.2 |
| 20260904195738 | 98 | 109 | 4.3 | 12.2 | 0.00 | 0.00 | 0.00 | 38 | 1011.2 |
| 20260904195237 | 97 | 127 | 4.3 | 10.4 | 0.00 | 0.00 | 0.00 | 39 | 1011.3 |
| 20260904195159 | 98 | 255 | 3.5 | 10.4 | 0.00 | 0.00 | 0.00 | 38 | 1011.5 |
| 20260904194152 | 97 | 166 | 3.5 | 8.7 | 0.00 | 0.00 | 0.00 | 40 | 1011.5 |
| 20260904194137 | 98 | 167 | 4.3 | 10.4 | 0.00 | 0.00 | 0.00 | 39 | 1011.6 |
| 20260904193144 | 97 | 137 | 3.5 | 11.3 | 0.00 | 0.00 | 0.00 | 40 | 1011.7 |
| 20260904192910 | 98 | 131 | 2.6 | 9.6 | 0.00 | 0.00 | 0.00 | 39 | 1011.9 |
| 20260904192340 | 98 | 209 | 2.6 | 7.8 | 0.00 | 0.00 | 0.00 | 40 | 1011.9 |
| 20260904191547 | 97 | 207 | 2.6 | 8.7 | 0.00 | 0.00 | 0.00 | 40 | 1012.0 |
| 20260904191018 | 97 | 233 | 3.5 | 8.7 | 0.00 | 0.00 | 0.00 | 42 | 1012.0 |
| 20260904190517 | 97 | 141 | 3.5 | 7.8 | 0.00 | 0.00 | 0.00 | 41 | 1012.1 |
| 20260904190013 | 97 | 120 | 3.5 | 7.8 | 0.00 | 0.00 | 0.00 | 40 | 1012.2 |
| 20260904185509 | 97 | 155 | 3.5 | 10.4 | 0.00 | 0.00 | 0.00 | 41 | 1012.2 |
| 20260904185009 | 98 | 172 | 3.5 | 10.4 | 0.00 | 0.00 | 0.00 | 40 | 1012.2 |
| 20260904184443 | 97 | 91 | 3.5 | 9.6 | 0.00 | 0.00 | 0.00 | 43 | 1012.2 |
| 20260904183918 | 96 | 172 | 3.5 | 9.6 | 0.00 | 0.00 | 0.00 | 43 | 1012.3 |
| 20260904183348 | 97 | 135 | 2.6 | 7.8 | 0.00 | 0.00 | 0.00 | 42 | 1012.5 |
| 20260904183115 | 97 | 114 | 1.7 | 7.8 | 0.00 | 0.00 | 0.00 | 41 | 1012.5 |
| 20260904182318 | 96 | 221 | 2.6 | 7.8 | 0.00 | 0.00 | 0.00 | 43 | 1012.5 |
| 20260904181751 | 96 | 136 | 2.6 | 7.8 | 0.00 | 0.00 | 0.00 | 44 | 1012.7 |
| 20260904181513 | 96 | 199 | 2.6 | 7.8 | 0.00 | 0.00 | 0.00 | 44 | 1012.8 |
| 20260904180747 | 96 | 141 | 2.6 | 7.8 | 0.00 | 0.00 | 0.00 | 43 | 1012.8 |
| 20260904180218 | 95 | 146 | 2.6 | 8.7 | 0.00 | 0.00 | 0.00 | 44 | 1012.9 |
| 20260904175717 | 95 | 114 | 3.5 | 9.6 | 0.00 | 0.00 | 0.00 | 46 | 1013.1 |
| 20260904175150 | 95 | 114 | 3.5 | 7.8 | 0.00 | 0.00 | 0.00 | 44 | 1013.0 |
| 20260904174625 | 96 | 148 | 3.5 | 7.8 | 0.00 | 0.00 | 0.00 | 43 | 1013.1 |
| 20260904174326 | 95 | 138 | 3.5 | 7.8 | 0.00 | 0.00 | 0.00 | 46 | 1013.1 |
| 20260904173541 | 95 | 111 | 2.6 | 10.4 | 0.00 | 0.00 | 0.00 | 45 | 1013.1 |
| 20260904173259 | 95 | 226 | 1.7 | 7.8 | 0.00 | 0.00 | 0.00 | 43 | 1013.3 |
| 20260904172541 | 95 | 221 | 1.7 | 7.8 | 0.00 | 0.00 | 0.00 | 46 | 1013.4 |
| 20260904172243 | 94 | 150 | 2.6 | 7.8 | 0.00 | 0.00 | 0.00 | 47 | 1013.5 |
| 20260904171511 | 94 | 234 | 3.5 | 7.8 | 0.00 | 0.00 | 0.00 | 46 | 1013.5 |
| 20260904170942 | 94 | 101 | 1.7 | 6.1 | 0.00 | 0.00 | 0.00 | 45 | 1013.5 |
| 20260904170440 | 93 | 230 | 1.7 | 6.1 | 0.00 | 0.00 | 0.00 | 49 | 1013.5 |
| 20260904165939 | 93 | 146 | 2.6 | 6.1 | 0.00 | 0.00 | 0.00 | 49 | 1013.6 |
| 20260904165410 | 92 | 105 | 2.6 | 6.1 | 0.00 | 0.00 | 0.00 | 51 | 1013.6 |
| 20260904164908 | 92 | 212 | 2.6 | 8.7 | 0.00 | 0.00 | 0.00 | 52 | 1013.7 |
| 20260904164342 | 92 | 223 | 2.6 | 8.7 | 0.00 | 0.00 | 0.00 | 52 | 1013.7 |
| 20260904163841 | 91 | 244 | 2.6 | 7.8 | 0.00 | 0.00 | 0.00 | 53 | 1013.7 |
| 20260904163343 | 91 | 191 | 2.6 | 7.8 | 0.00 | 0.00 | 0.00 | 55 | 1013.7 |
| 20260904163105 | 90 | 219 | 3.5 | 7.0 | 0.00 | 0.00 | 0.00 | 55 | 1013.8 |
| 20260904162345 | 90 | 238 | 2.6 | 6.1 | 0.00 | 0.00 | 0.00 | 55 | 1013.7 |
| 20260904161818 | 90 | 214 | 3.5 | 9.6 | 0.00 | 0.00 | 0.00 | 55 | 1013.7 |
| 20260904161318 | 90 | 136 | 3.5 | 9.6 | 0.00 | 0.00 | 0.00 | 58 | 1013.7 |
| 20260904161245 | 90 | 122 | 2.6 | 7.8 | 0.00 | 0.00 | 0.00 | 58 | 1013.7 |
| 20260904160305 | 90 | 128 | 3.5 | 8.7 | 0.00 | 0.00 | 0.00 | 58 | 1013.8 |
| 20260904155736 | 89 | 139 | 3.5 | 8.7 | 0.00 | 0.00 | 0.00 | 58 | 1013.8 |
| 20260904155234 | 89 | 149 | 3.5 | 8.7 | 0.00 | 0.00 | 0.00 | 59 | 1013.7 |
| 20260904154707 | 89 | 233 | 3.5 | 8.7 | 0.00 | 0.00 | 0.00 | 60 | 1013.7 |
| 20260904154206 | 88 | 207 | 3.5 | 8.7 | 0.00 | 0.00 | 0.00 | 61 | 1013.7 |
| 20260904153638 | 88 | 185 | 2.6 | 8.7 | 0.00 | 0.00 | 0.00 | 62 | 1013.6 |
| 20260904153134 | 87 | 217 | 4.3 | 7.0 | 0.00 | 0.00 | 0.00 | 65 | 1013.7 |
| 20260904152608 | 87 | 226 | 5.2 | 10.4 | 0.00 | 0.00 | 0.00 | 65 | 1013.6 |
| 20260904152306 | 87 | 245 | 3.5 | 9.6 | 0.00 | 0.00 | 0.00 | 65 | 1013.6 |
| 20260904151514 | 86 | 135 | 2.6 | 8.7 | 0.00 | 0.00 | 0.00 | 68 | 1013.5 |
| 20260904150954 | 86 | 210 | 2.6 | 8.7 | 0.00 | 0.00 | 0.00 | 69 | 1013.5 |
| 20260904150429 | 85 | 181 | 2.6 | 7.0 | 0.00 | 0.00 | 0.00 | 70 | 1013.5 |
| 20260904145902 | 85 | 195 | 2.6 | 7.0 | 0.00 | 0.00 | 0.00 | 71 | 1013.6 |
| 20260904145357 | 84 | 114 | 2.6 | 7.0 | 0.00 | 0.00 | 0.00 | 72 | 1013.5 |
| 20260904144857 | 84 | 236 | 3.5 | 8.7 | 0.00 | 0.00 | 0.00 | 73 | 1013.6 |
| 20260904144829 | 83 | 167 | 3.5 | 8.7 | 0.00 | 0.00 | 0.00 | 75 | 1013.6 |
| 20260904143809 | 83 | 196 | 3.5 | 7.8 | 0.00 | 0.00 | 0.00 | 75 | 1013.6 |
| 20260904143236 | 83 | 226 | 3.5 | 6.1 | 0.00 | 0.00 | 0.00 | 75 | 1013.7 |
| 20260904142925 | 83 | 218 | 3.5 | 7.0 | 0.00 | 0.00 | 0.00 | 76 | 1013.7 |
| 20260904142206 | 83 | 202 | 2.6 | 7.0 | 0.00 | 0.00 | 0.00 | 77 | 1013.7 |
| 20260904141645 | 83 | 207 | 2.6 | 7.0 | 0.00 | 0.00 | 0.00 | 78 | 1013.6 |
| 20260904141138 | 82 | 120 | 2.6 | 6.1 | 0.00 | 0.00 | 0.00 | 78 | 1013.5 |
| 20260904140640 | 82 | 212 | 3.5 | 7.8 | 0.00 | 0.00 | 0.00 | 79 | 1013.6 |
| 20260904140136 | 82 | 252 | 3.5 | 7.8 | 0.00 | 0.00 | 0.00 | 79 | 1013.6 |
| 20260904135635 | 81 | 222 | 2.6 | 7.0 | 0.00 | 0.00 | 0.00 | 80 | 1013.5 |
| 20260904135340 | 81 | 146 | 2.6 | 7.0 | 0.00 | 0.00 | 0.00 | 81 | 1013.5 |
| 20260904134842 | 80 | 217 | 3.5 | 9.6 | 0.00 | 0.00 | 0.00 | 82 | 1013.4 |
| 20260904134049 | 80 | 134 | 2.6 | 7.8 | 0.00 | 0.00 | 0.00 | 83 | 1013.3 |
| 20260904133752 | 80 | 135 | 2.6 | 9.6 | 0.00 | 0.00 | 0.00 | 84 | 1013.3 |
| 20260904133009 | 79 | 257 | 2.6 | 9.6 | 0.00 | 0.00 | 0.00 | 84 | 1013.3 |
| 20260904132511 | 79 | 115 | 2.6 | 7.8 | 0.00 | 0.00 | 0.00 | 84 | 1013.2 |
| 20260904131949 | 79 | 265 | 2.6 | 7.8 | 0.00 | 0.00 | 0.00 | 85 | 1013.2 |
| 20260904131429 | 79 | 238 | 1.7 | 5.2 | 0.00 | 0.00 | 0.00 | 85 | 1013.2 |
| 20260904130929 | 79 | 117 | 1.7 | 7.0 | 0.00 | 0.00 | 0.00 | 85 | 1013.1 |
| 20260904130429 | 79 | 112 | 1.7 | 7.0 | 0.00 | 0.00 | 0.00 | 85 | 1013.1 |
| 20260904125935 | 78 | 165 | 1.7 | 4.3 | 0.00 | 0.00 | 0.00 | 85 | 1013.0 |
| 20260904125629 | 78 | 173 | 1.7 | 5.2 | 0.00 | 0.00 | 0.00 | 85 | 1013.0 |
| 20260904124840 | 78 | 133 | 1.7 | 5.2 | 0.00 | 0.00 | 0.00 | 85 | 1012.9 |
| 20260904124339 | 78 | 135 | 1.7 | 7.0 | 0.00 | 0.00 | 0.00 | 85 | 1012.9 |
| 20260904123814 | 78 | 135 | 1.7 | 5.2 | 0.00 | 0.00 | 0.00 | 86 | 1012.8 |
| 20260904123304 | 78 | 127 | 0.9 | 4.3 | 0.00 | 0.00 | 0.00 | 86 | 1012.8 |
| 20260904122805 | 78 | 153 | 0.9 | 3.5 | 0.00 | 0.00 | 0.00 | 86 | 1012.9 |
| 20260904122248 | 77 | 165 | 0.9 | 4.3 | 0.00 | 0.00 | 0.00 | 86 | 1012.9 |
| 20260904121743 | 77 | 136 | 0.9 | 4.3 | 0.00 | 0.00 | 0.00 | 86 | 1012.8 |
| 20260904121240 | 77 | 138 | 0.0 | 3.5 | 0.00 | 0.00 | 0.00 | 86 | 1012.8 |
| 20260904120717 | 77 | 120 | 0.0 | 2.6 | 0.00 | 0.00 | 0.00 | 86 | 1012.8 |
| 20260904120218 | 77 | 250 | 0.9 | 2.6 | 0.00 | 0.00 | 0.00 | 86 | 1012.8 |
| 20260904115654 | 77 | 121 | 0.9 | 5.2 | 0.00 | 0.00 | 0.00 | 86 | 1012.8 |
| 20260904115133 | 77 | 125 | 1.7 | 4.3 | 0.00 | 0.00 | 0.00 | 86 | 1012.7 |
| 20260904114604 | 77 | 142 | 0.9 | 4.3 | 0.00 | 0.00 | 0.00 | 86 | 1012.7 |
| 20260904114102 | 77 | 153 | 0.9 | 3.5 | 0.00 | 0.00 | 0.00 | 86 | 1012.6 |
| 20260904113534 | 77 | 135 | 0.9 | 3.5 | 0.00 | 0.00 | 0.00 | 85 | 1012.5 |
| 20260904113009 | 77 | 126 | 0.9 | 4.3 | 0.00 | 0.00 | 0.00 | 85 | 1012.5 |
| 20260904112505 | 77 | 127 | 0.9 | 4.3 | 0.00 | 0.00 | 0.00 | 85 | 1012.4 |
| 20260904112233 | 77 | 131 | 0.0 | 4.3 | 0.00 | 0.00 | 0.00 | 84 | 1012.4 |
| 20260904111459 | 78 | 134 | 0.9 | 5.2 | 0.00 | 0.00 | 0.00 | 84 | 1012.4 |
| 20260904111226 | 78 | 164 | 0.9 | 6.1 | 0.00 | 0.00 | 0.00 | 84 | 1012.3 |
| 20260904110430 | 78 | 113 | 0.9 | 6.1 | 0.00 | 0.00 | 0.00 | 84 | 1012.3 |
| 20260904105926 | 78 | 141 | 1.7 | 6.1 | 0.00 | 0.00 | 0.00 | 84 | 1012.3 |
| 20260904105626 | 78 | 108 | 0.9 | 3.5 | 0.00 | 0.00 | 0.00 | 84 | 1012.4 |
| 20260904104856 | 78 | 136 | 0.0 | 1.7 | 0.00 | 0.00 | 0.00 | 83 | 1012.4 |
| 20260904104356 | 78 | 122 | 0.9 | 4.3 | 0.00 | 0.00 | 0.00 | 83 | 1012.3 |
| 20260904103832 | 78 | 117 | 0.9 | 4.3 | 0.00 | 0.00 | 0.00 | 83 | 1012.3 |
| 20260904103524 | 78 | 134 | 0.9 | 3.5 | 0.00 | 0.00 | 0.00 | 83 | 1012.2 |
| 20260904102803 | 78 | 231 | 1.7 | 5.2 | 0.00 | 0.00 | 0.00 | 83 | 1012.2 |
| 20260904102236 | 78 | 149 | 0.9 | 5.2 | 0.00 | 0.00 | 0.00 | 83 | 1012.2 |
| 20260904101708 | 78 | 143 | 0.9 | 3.5 | 0.00 | 0.00 | 0.00 | 82 | 1012.1 |
| 20260904101141 | 78 | 124 | 0.9 | 4.3 | 0.00 | 0.00 | 0.00 | 82 | 1012.2 |
| 20260904100639 | 78 | 101 | 0.9 | 4.3 | 0.00 | 0.00 | 0.00 | 82 | 1012.2 |
| 20260904100111 | 78 | 133 | 0.9 | 7.0 | 0.00 | 0.00 | 0.00 | 82 | 1012.1 |
| 20260904095543 | 78 | 171 | 0.9 | 7.0 | 0.00 | 0.00 | 0.00 | 81 | 1012.1 |
| 20260904095043 | 78 | 236 | 0.9 | 3.5 | 0.00 | 0.00 | 0.00 | 81 | 1012.1 |
| 20260904094514 | 78 | 131 | 0.9 | 4.3 | 0.00 | 0.00 | 0.00 | 80 | 1012.1 |
| 20260904093950 | 78 | 154 | 0.9 | 4.3 | 0.00 | 0.00 | 0.00 | 80 | 1012.2 |
| 20260904093429 | 78 | 206 | 0.9 | 4.3 | 0.00 | 0.00 | 0.00 | 80 | 1012.1 |
| 20260904092928 | 78 | 184 | 0.9 | 4.3 | 0.00 | 0.00 | 0.00 | 80 | 1012.0 |
| 20260904092407 | 78 | 207 | 0.9 | 3.5 | 0.00 | 0.00 | 0.00 | 80 | 1012.0 |
| 20260904091907 | 78 | 142 | 0.9 | 7.0 | 0.00 | 0.00 | 0.00 | 79 | 1012.0 |
| 20260904091405 | 78 | 120 | 1.7 | 7.0 | 0.00 | 0.00 | 0.00 | 79 | 1012.0 |
| 20260904091121 | 78 | 228 | 0.9 | 6.1 | 0.00 | 0.00 | 0.00 | 79 | 1012.1 |
| 20260904090401 | 78 | 130 | 0.9 | 4.3 | 0.00 | 0.00 | 0.00 | 79 | 1012.1 |
| 20260904085833 | 78 | 158 | 1.7 | 4.3 | 0.00 | 0.00 | 0.00 | 79 | 1012.1 |
| 20260904085531 | 78 | 139 | 0.9 | 4.3 | 0.00 | 0.01 | 0.00 | 79 | 1012.1 |
| 20260904084740 | 78 | 201 | 0.9 | 4.3 | 0.00 | 0.01 | 0.00 | 79 | 1012.1 |
| 20260904084723 | 78 | 127 | 0.0 | 2.6 | 0.00 | 0.01 | 0.00 | 79 | 1012.0 |
| 20260904083734 | 78 | 122 | 0.9 | 5.2 | 0.00 | 0.01 | 0.00 | 78 | 1012.1 |
| 20260904083205 | 78 | 131 | 0.9 | 5.2 | 0.00 | 0.01 | 0.00 | 78 | 1012.0 |
| 20260904082706 | 78 | 217 | 0.9 | 4.3 | 0.00 | 0.01 | 0.00 | 78 | 1012.0 |
| 20260904082205 | 78 | 133 | 0.9 | 4.3 | 0.00 | 0.01 | 0.00 | 78 | 1011.9 |
| 20260904081704 | 78 | 117 | 0.9 | 2.6 | 0.00 | 0.01 | 0.00 | 78 | 1012.0 |
| 20260904081135 | 78 | 139 | 0.0 | 1.7 | 0.00 | 0.01 | 0.00 | 77 | 1012.0 |
| 20260904080634 | 77 | 138 | 0.0 | 1.7 | 0.00 | 0.01 | 0.00 | 77 | 1012.1 |
| 20260904080109 | 77 | 129 | 0.0 | 1.7 | 0.00 | 0.01 | 0.00 | 77 | 1012.1 |
| 20260904075555 | 78 | 116 | 0.0 | 1.7 | 0.00 | 0.01 | 0.00 | 77 | 1012.0 |
| 20260904075058 | 78 | 260 | 0.0 | 2.6 | 0.00 | 0.01 | 0.00 | 76 | 1011.9 |
| 20260904074753 | 78 | 120 | 0.0 | 4.3 | 0.00 | 0.01 | 0.00 | 76 | 1011.7 |
| 20260904074025 | 78 | 131 | 0.9 | 4.3 | 0.00 | 0.01 | 0.00 | 76 | 1011.9 |
| 20260904074001 | 78 | 132 | 0.9 | 4.3 | 0.00 | 0.01 | 0.00 | 76 | 1011.7 |
| 20260904073500 | 78 | 136 | 1.7 | 4.3 | 0.00 | 0.01 | 0.00 | 76 | 1011.7 |
| 20260904072514 | 78 | 221 | 0.9 | 4.3 | 0.00 | 0.01 | 0.00 | 75 | 1011.9 |
| 20260904072009 | 78 | 150 | 0.9 | 3.5 | 0.00 | 0.01 | 0.00 | 75 | 1012.0 |
| 20260904071507 | 78 | 119 | 0.9 | 2.6 | 0.00 | 0.01 | 0.00 | 75 | 1012.0 |
| 20260904071227 | 78 | 132 | 0.9 | 2.6 | 0.00 | 0.01 | 0.00 | 75 | 1012.0 |
| 20260904070504 | 78 | 195 | 0.9 | 3.5 | 0.00 | 0.01 | 0.00 | 74 | 1012.1 |
| 20260904065933 | 78 | 211 | 0.9 | 3.5 | 0.00 | 0.01 | 0.00 | 74 | 1012.1 |
| 20260904065432 | 78 | 161 | 0.9 | 4.3 | 0.00 | 0.01 | 0.00 | 74 | 1012.1 |
| 20260904064906 | 79 | 126 | 0.9 | 4.3 | 0.00 | 0.01 | 0.00 | 74 | 1012.1 |
| 20260904064337 | 79 | 188 | 1.7 | 4.3 | 0.00 | 0.01 | 0.00 | 73 | 1012.2 |
| 20260904063827 | 79 | 221 | 1.7 | 5.2 | 0.00 | 0.01 | 0.00 | 73 | 1012.2 |
| 20260904063323 | 79 | 144 | 2.6 | 6.1 | 0.00 | 0.01 | 0.00 | 73 | 1012.2 |
| 20260904062821 | 79 | 238 | 1.7 | 6.1 | 0.00 | 0.01 | 0.00 | 73 | 1012.2 |
| 20260904062253 | 79 | 142 | 0.9 | 4.3 | 0.00 | 0.01 | 0.00 | 73 | 1012.1 |
| 20260904062017 | 79 | 188 | 1.7 | 5.2 | 0.00 | 0.01 | 0.00 | 72 | 1012.1 |
| 20260904061225 | 79 | 262 | 2.6 | 5.2 | 0.00 | 0.01 | 0.00 | 72 | 1012.1 |
| 20260904060701 | 79 | 233 | 1.7 | 5.2 | 0.00 | 0.01 | 0.00 | 72 | 1012.1 |
| 20260904060202 | 79 | 128 | 1.7 | 5.2 | 0.00 | 0.01 | 0.00 | 71 | 1012.2 |
| 20260904055633 | 79 | 198 | 1.7 | 6.1 | 0.00 | 0.01 | 0.00 | 70 | 1012.2 |
| 20260904055129 | 80 | 215 | 2.6 | 4.3 | 0.00 | 0.01 | 0.00 | 70 | 1012.2 |
| 20260904054608 | 80 | 207 | 2.6 | 6.1 | 0.00 | 0.01 | 0.00 | 70 | 1012.2 |
| 20260904054034 | 80 | 233 | 2.6 | 7.0 | 0.00 | 0.01 | 0.00 | 69 | 1012.1 |
| 20260904053531 | 80 | 171 | 2.6 | 7.0 | 0.00 | 0.01 | 0.00 | 69 | 1012.1 |
| 20260904053027 | 80 | 230 | 2.6 | 6.1 | 0.00 | 0.01 | 0.00 | 69 | 1012.0 |
| 20260904052507 | 80 | 156 | 2.6 | 6.1 | 0.00 | 0.01 | 0.00 | 69 | 1012.0 |
| 20260904052007 | 80 | 151 | 1.7 | 5.2 | 0.00 | 0.01 | 0.00 | 69 | 1012.0 |
| 20260904051504 | 80 | 197 | 1.7 | 5.2 | 0.00 | 0.01 | 0.00 | 68 | 1012.1 |
| 20260904050951 | 80 | 162 | 1.7 | 7.0 | 0.00 | 0.01 | 0.00 | 68 | 1012.0 |
| 20260904050447 | 80 | 247 | 2.6 | 7.0 | 0.00 | 0.01 | 0.00 | 68 | 1012.0 |
| 20260904045927 | 80 | 160 | 1.7 | 6.1 | 0.00 | 0.01 | 0.01 | 67 | 1012.0 |
| 20260904045425 | 80 | 194 | 1.7 | 6.1 | 0.00 | 0.01 | 0.01 | 67 | 1012.1 |
| 20260904044925 | 80 | 188 | 1.7 | 5.2 | 0.00 | 0.01 | 0.01 | 66 | 1012.1 |
| 20260904044422 | 80 | 94 | 1.7 | 5.2 | 0.00 | 0.01 | 0.01 | 66 | 1012.1 |
| 20260904043921 | 80 | 139 | 1.7 | 5.2 | 0.00 | 0.01 | 0.01 | 66 | 1012.1 |
| 20260904043419 | 80 | 125 | 2.6 | 5.2 | 0.00 | 0.01 | 0.01 | 65 | 1012.1 |
| 20260904042922 | 80 | 188 | 2.6 | 7.8 | 0.00 | 0.01 | 0.01 | 65 | 1012.2 |
| 20260904042352 | 81 | 186 | 2.6 | 7.8 | 0.00 | 0.01 | 0.01 | 65 | 1012.3 |
| 20260904041851 | 81 | 221 | 1.7 | 7.0 | 0.00 | 0.01 | 0.01 | 65 | 1012.2 |
| 20260904041355 | 81 | 229 | 2.6 | 5.2 | 0.00 | 0.01 | 0.01 | 65 | 1012.3 |
| 20260904040835 | 81 | 220 | 2.6 | 6.1 | 0.00 | 0.01 | 0.01 | 65 | 1012.2 |
| 20260904040310 | 81 | 150 | 2.6 | 5.2 | 0.00 | 0.01 | 0.01 | 64 | 1012.2 |
| 20260904035803 | 81 | 256 | 2.6 | 6.1 | 0.00 | 0.01 | 0.01 | 64 | 1012.2 |
| 20260904035245 | 81 | 254 | 2.6 | 5.2 | 0.00 | 0.01 | 0.01 | 64 | 1012.1 |
| 20260904034743 | 81 | 207 | 1.7 | 6.1 | 0.00 | 0.01 | 0.01 | 64 | 1012.1 |
| 20260904034245 | 81 | 194 | 1.7 | 6.1 | 0.00 | 0.01 | 0.01 | 64 | 1012.1 |
| 20260904033725 | 81 | 117 | 1.7 | 7.0 | 0.00 | 0.01 | 0.01 | 64 | 1012.2 |
| 20260904033218 | 81 | 127 | 2.6 | 6.1 | 0.00 | 0.01 | 0.01 | 64 | 1012.2 |
| 20260904032659 | 82 | 200 | 2.6 | 8.7 | 0.00 | 0.01 | 0.01 | 64 | 1012.2 |
| 20260904032138 | 82 | 266 | 2.6 | 8.7 | 0.00 | 0.01 | 0.01 | 64 | 1012.4 |
| 20260904031641 | 82 | 242 | 2.6 | 8.7 | 0.00 | 0.01 | 0.01 | 64 | 1012.3 |
| 20260904031116 | 82 | 113 | 2.6 | 5.2 | 0.00 | 0.01 | 0.01 | 64 | 1012.2 |
| 20260904030559 | 82 | 200 | 3.5 | 8.7 | 0.00 | 0.01 | 0.01 | 64 | 1012.2 |
| 20260904030256 | 82 | 98 | 3.5 | 7.8 | 0.00 | 0.01 | 0.01 | 64 | 1012.0 |
| 20260904025510 | 82 | 117 | 3.5 | 10.4 | 0.00 | 0.01 | 0.01 | 64 | 1012.0 |
| 20260904025005 | 82 | 245 | 3.5 | 10.4 | 0.00 | 0.01 | 0.01 | 64 | 1011.9 |
| 20260904024503 | 82 | 131 | 2.6 | 7.0 | 0.00 | 0.01 | 0.01 | 64 | 1011.9 |
| 20260904024004 | 82 | 181 | 2.6 | 7.0 | 0.00 | 0.01 | 0.01 | 64 | 1011.7 |
| 20260904023439 | 83 | 250 | 3.5 | 7.0 | 0.00 | 0.01 | 0.01 | 65 | 1011.5 |
| 20260904022913 | 83 | 172 | 2.6 | 8.7 | 0.00 | 0.01 | 0.01 | 65 | 1011.5 |
| 20260904022410 | 83 | 82 | 2.6 | 8.7 | 0.00 | 0.01 | 0.01 | 66 | 1011.4 |
| 20260904021910 | 83 | 244 | 2.6 | 7.0 | 0.00 | 0.01 | 0.01 | 67 | 1011.2 |
| 20260904021409 | 83 | 133 | 2.6 | 9.6 | 0.00 | 0.01 | 0.01 | 66 | 1011.1 |
| 20260904020905 | 83 | 165 | 3.5 | 8.7 | 0.00 | 0.01 | 0.01 | 65 | 1011.1 |
| 20260904020341 | 83 | 207 | 3.5 | 9.6 | 0.00 | 0.01 | 0.01 | 64 | 1011.1 |
| 20260904015812 | 83 | 120 | 2.6 | 7.8 | 0.00 | 0.01 | 0.01 | 64 | 1010.9 |
| 20260904015308 | 84 | 218 | 1.7 | 7.0 | 0.00 | 0.01 | 0.01 | 64 | 1010.9 |
| 20260904014806 | 84 | 115 | 1.7 | 6.1 | 0.00 | 0.01 | 0.01 | 65 | 1010.8 |
| 20260904014305 | 84 | 133 | 3.5 | 6.1 | 0.00 | 0.01 | 0.01 | 65 | 1010.8 |
| 20260904013736 | 84 | 126 | 3.5 | 7.8 | 0.00 | 0.01 | 0.01 | 64 | 1010.8 |
| 20260904013211 | 84 | 124 | 2.6 | 7.8 | 0.00 | 0.01 | 0.01 | 64 | 1010.7 |
| 20260904012642 | 85 | 170 | 3.5 | 7.0 | 0.00 | 0.01 | 0.01 | 64 | 1010.6 |
| 20260904012338 | 85 | 195 | 3.5 | 7.8 | 0.00 | 0.01 | 0.01 | 64 | 1010.6 |
| 20260904011608 | 85 | 151 | 2.6 | 7.8 | 0.00 | 0.01 | 0.01 | 65 | 1010.5 |
| 20260904011044 | 85 | 108 | 2.6 | 8.7 | 0.00 | 0.01 | 0.01 | 64 | 1010.4 |
| 20260904010744 | 85 | 115 | 2.6 | 8.7 | 0.00 | 0.01 | 0.01 | 64 | 1010.4 |